Showing default

SINOD-D 1, 40974

Orbit data source: Space-Track

SINOD-D 1, 40974 is a payload satellite owned by SRI (US) in LEO that was launched on Thu, 08 Oct 2015 UTC via an ATLAS V 401 launch vehicle from the Air Force Western Test Range (AFWTR). Payload-class satellites include a variety of spacecraft equipped with specific instruments for various scientific and technological missions. These include communications satellites like Starlink; space stations such as the ISS; scientific satellites like the Hubble; Earth observation satellites from companies like Planet Labs, Umbra, and HawkEye 360; GPS; miniature CubeSats for education and research; and military/defense satellites.

Loading next visibility...
Identifier
40974, 2015-058L
Orbit
LEO
Last TLE update
1 day ago
Origin
Manufacturer
SRI
Mission
Operational Commercial Technology
Bus & Motor
CUBESAT 2U, Unknown motor
Mass
2 kg wet, 2 kg dry
Launch date (UTC)
2015-10-08 (10 years ago)
Launch vehicle
ATLAS V 401
Launch site
Air Force Western Test Range (AFWTR)
Object type
Payload
Rocket body
Debris
Shape & HBR
Box, 0.2 m
Radar Cross Section
0.040 m², Small (<0.1 m²)

Expand to show TLE details & history

TLE from 1 day ago
0 SINOD-D 1
1 40974U 15058L   25128.12198994  .00008395  00000-0  50098-3 0  9994
2 40974  64.7653  31.8959 0126587 207.5474 151.8901 15.05186742 54430
Epoch: 2025-05-08T02:55Z
Definitive object data (Epoch: 2025-05-08T02:55:39.93Z)
Latitude
0.00001°
Longitude
121.78251°
Altitude
630.569 km
Speed
7.501 km/s
True Right ascension
02h 07m 35s
True Declination
0° 00' 00"
Sunlit
Object was in daylight at TLE epoch
Visualization TLE readout
Latitude
2.90345°
Longitude
119.55431°
Altitude
632.587 km
Speed
7.499 km/s
Apparent Right ascension
02h 04m 03s
Apparent Declination
-17° 21' 22"
Sunlit
Object is in daylight
Visualization observer readout
Local Sidereal Time
14:11:46
Azimuth
4.788° NNE
Elevation
-67.378°
Doppler factor
1
Orbital elements
Apogee altitude
637.186 km
Perigee altitude
461.797 km
Semi-major axis
6,927.628 km
Eccentricity
0.0126587
Inclination
64.7653°
RAAN
31.8959°
Arg. of periapsis
207.5474°
True anomaly
152.56413°
Mean anomaly
151.8901°
Eccentric anomaly
152.22805°
Mean motion
3.76414 °/min
BSTAR
0.00050098
Orbital period
95.64 mins
Loading maneuver chart data...
Loading SW <> Apogee altitude chart data...
Loading historical data...
Loading historical data...
Loading historical data...
Loading historical data...
Loading historical data...
Loading historical data...
Loading historical data...

SINOD-D 1 Visibility forecast

Observer location: undefined°, undefined°

Span
Click to sort rows by Start time (UTC) header in descending order
Start Az.
Max El. time (UTC)
Max El. Az.
Max El.
End time (UTC)
End Az.
8 mins2025-05-09 18:56:00.303Z203.161° SW2025-05-09 19:00:00.303Z71.442° E42.847°2025-05-09 19:04:00.303Z35.37° NE
4 mins2025-05-09 20:37:00.303Z294.922° NW2025-05-09 20:38:00.303Z309.563° NW14.895°2025-05-09 20:41:00.303Z352.461° N
5 mins2025-05-10 03:19:00.303Z356.261° N2025-05-10 03:21:00.303Z44.513° NE30.799°2025-05-10 03:24:00.303Z115.138° SE
|